UAL414 EDDF-KJFK

Flight info

Callsign UAL414
Flight time N/A
Altitude 34000
Route OBOKA5G/25C OBOKA Z28 DIBIR DCT BUDIP DCT GODOS DCT GOMUP/M083F360 DCT 59N020W 60N030W 60N040W 59N050W DCT BOKTO/N0486F360 N822C DUVBI/N0481F380 N822C QUBIS DCT ENE PARCH4
Aircraft B77W/H-SDE1E2E3FGHIJ2J3J4J5M1RWXY/LB1D1

Departure

Time 2026-04-17 13:11
Airport Frankfurt Main Airport (EDDF)

Arrival

Time N/A
Airport John F. Kennedy International Airport (KJFK)
Time Latitude Longitude Altitude Speed Heading
2026-04-17 12:48 50.05017 8.58538 364 ft 0 kts 339°
2026-04-17 13:02 50.05000 8.58547 367 ft 4 kts 339°
2026-04-17 13:02 50.04984 8.58556 366 ft 4 kts 346°
2026-04-17 13:03 50.04958 8.58561 368 ft 4 kts
2026-04-17 13:03 50.04934 8.58548 366 ft 4 kts 37°
2026-04-17 13:03 50.04916 8.58518 364 ft 4 kts 60°
2026-04-17 13:03 50.04904 8.58480 364 ft 4 kts 71°
2026-04-17 13:04 50.04898 8.58449 367 ft 3 kts 70°
2026-04-17 13:04 50.04896 8.58446 367 ft 0 kts 69°
2026-04-17 13:06 50.04896 8.58447 367 ft 1 kts 69°
2026-04-17 13:06 50.04914 8.58522 364 ft 12 kts 70°
2026-04-17 13:06 50.04909 8.58649 369 ft 13 kts 127°
2026-04-17 13:07 50.04879 8.58684 370 ft 0 kts 152°
2026-04-17 13:08 50.04876 8.58687 367 ft 2 kts 153°
2026-04-17 13:09 50.04835 8.58714 374 ft 10 kts 157°
2026-04-17 13:09 50.04749 8.58761 376 ft 14 kts 168°
2026-04-17 13:09 50.04652 8.58759 375 ft 14 kts 189°
2026-04-17 13:09 50.04566 8.58689 379 ft 14 kts 218°
2026-04-17 13:10 50.04494 8.58587 379 ft 14 kts 230°
2026-04-17 13:10 50.04457 8.58461 376 ft 13 kts 249°
2026-04-17 13:10 50.04354 8.58034 373 ft 79 kts 250°
2026-04-17 13:10 50.04082 8.56893 371 ft 144 kts 249°
2026-04-17 13:11 50.03672 8.55167 369 ft 191 kts 250°
2026-04-17 13:11 50.03200 8.53206 832 ft 193 kts 248°
2026-04-17 13:11 50.02736 8.51265 1495 ft 191 kts 255°
2026-04-17 13:11 50.02736 8.49167 1879 ft 203 kts 276°
2026-04-17 13:12 50.02906 8.46849 2175 ft 228 kts 274°
2026-04-17 13:12 50.02757 8.41595 3095 ft 254 kts 255°
2026-04-17 13:12 50.02368 8.38887 3812 ft 259 kts 257°
2026-04-17 13:13 50.02030 8.36141 4637 ft 259 kts 258°
2026-04-17 13:13 50.01699 8.33390 5345 ft 263 kts 257°
2026-04-17 13:13 50.01361 8.30581 6071 ft 266 kts 258°
2026-04-17 13:13 50.01315 8.27700 6555 ft 274 kts 284°
2026-04-17 13:14 50.02063 8.24977 7135 ft 276 kts 294°
2026-04-17 13:14 50.02886 8.22261 7852 ft 278 kts 292°
2026-04-17 13:14 50.03682 8.19523 8601 ft 278 kts 292°
2026-04-17 13:14 50.04480 8.16766 9291 ft 282 kts 293°
2026-04-17 13:15 50.05280 8.14006 9973 ft 285 kts 293°
2026-04-17 13:15 50.06167 8.11248 10541 ft 288 kts 301°
2026-04-17 13:15 50.07387 8.08650 10730 ft 309 kts 307°
2026-04-17 13:15 50.08804 8.05979 10908 ft 330 kts 309°
2026-04-17 13:16 50.10327 8.03151 11079 ft 352 kts 309°
2026-04-17 13:16 50.11929 8.00150 11410 ft 366 kts 308°
2026-04-17 13:16 50.13559 7.97049 11983 ft 374 kts 308°
2026-04-17 13:16 50.15207 7.93876 12704 ft 378 kts 307°
2026-04-17 13:17 50.16854 7.90679 13233 ft 379 kts 307°
2026-04-17 13:17 50.18512 7.87446 13200 ft 382 kts 307°
2026-04-17 13:17 50.20164 7.84219 13203 ft 380 kts 307°
2026-04-17 13:17 50.21809 7.81002 13201 ft 379 kts 307°
2026-04-17 13:18 50.23449 7.77785 13200 ft 379 kts 307°
2026-04-17 13:18 50.25129 7.74653 13180 ft 374 kts 314°
2026-04-17 13:18 50.27309 7.72357 13206 ft 382 kts 334°
2026-04-17 13:18 50.29800 7.70796 13212 ft 388 kts 336°
2026-04-17 13:19 50.32258 7.69174 13198 ft 387 kts 334°
2026-04-17 13:19 50.34717 7.67488 13186 ft 386 kts 334°
2026-04-17 13:19 50.37169 7.65795 13205 ft 384 kts 334°
2026-04-17 13:19 50.39612 7.64108 13202 ft 383 kts 334°
2026-04-17 13:20 50.42050 7.62428 13192 ft 383 kts 334°
2026-04-17 13:20 50.44492 7.60747 13202 ft 383 kts 334°
2026-04-17 13:20 50.46928 7.59073 13195 ft 382 kts 334°
2026-04-17 13:20 50.49365 7.57396 13195 ft 382 kts 334°
2026-04-17 13:21 50.51805 7.55715 13211 ft 383 kts 334°
2026-04-17 13:21 50.54245 7.54026 13213 ft 383 kts 334°
2026-04-17 13:21 50.56670 7.52270 13212 ft 383 kts 330°
2026-04-17 13:21 50.58949 7.50110 13218 ft 382 kts 324°
2026-04-17 13:22 50.61143 7.47755 13195 ft 383 kts 323°
2026-04-17 13:22 50.63344 7.45364 13208 ft 383 kts 323°
2026-04-17 13:22 50.65521 7.43046 13221 ft 384 kts 323°
2026-04-17 13:22 50.67778 7.40695 13206 ft 384 kts 324°
2026-04-17 13:23 50.69990 7.38420 13209 ft 384 kts 324°
2026-04-17 13:23 50.72258 7.36090 13207 ft 384 kts 324°
2026-04-17 13:23 50.74451 7.33701 13203 ft 382 kts 317°
2026-04-17 13:23 50.76139 7.30578 13213 ft 370 kts 301°
2026-04-17 13:24 50.77546 7.27179 13222 ft 378 kts 301°
2026-04-17 13:24 50.79028 7.23716 13210 ft 380 kts 302°
2026-04-17 13:24 50.80528 7.20286 13205 ft 378 kts 302°
2026-04-17 13:24 50.82031 7.16888 13205 ft 377 kts 303°
2026-04-17 13:25 50.83538 7.13498 13307 ft 379 kts 303°
2026-04-17 13:25 50.85066 7.10062 14013 ft 383 kts 303°
2026-04-17 13:25 50.86597 7.06619 14789 ft 383 kts 303°
2026-04-17 13:25 50.88135 7.03147 15441 ft 387 kts 302°
2026-04-17 13:26 50.89688 6.99630 16055 ft 392 kts 302°
2026-04-17 13:26 50.91265 6.96064 16731 ft 395 kts 302°
2026-04-17 13:26 50.92848 6.92488 17422 ft 398 kts 302°
2026-04-17 13:26 50.94441 6.88889 18112 ft 401 kts 302°
2026-04-17 13:27 50.96051 6.85249 18748 ft 405 kts 302°
2026-04-17 13:27 50.97673 6.81579 19341 ft 408 kts 302°
2026-04-17 13:27 50.99308 6.77877 19931 ft 411 kts 302°
2026-04-17 13:27 51.00955 6.74140 20543 ft 415 kts 302°
2026-04-17 13:28 51.02616 6.70369 21145 ft 418 kts 302°
2026-04-17 13:28 51.04289 6.66568 21740 ft 422 kts 303°
2026-04-17 13:28 51.05976 6.62732 22309 ft 425 kts 302°
2026-04-17 13:28 51.07656 6.58898 22859 ft 429 kts 302°
2026-04-17 13:29 51.09367 6.54981 23414 ft 433 kts 302°
2026-04-17 13:29 51.11083 6.51022 23962 ft 436 kts 302°
2026-04-17 13:29 51.12802 6.47040 24443 ft 438 kts 302°
2026-04-17 13:29 51.14531 6.43031 24971 ft 440 kts 302°
2026-04-17 13:30 51.16265 6.39008 25488 ft 441 kts 302°
2026-04-17 13:30 51.18006 6.34969 26017 ft 443 kts 302°
2026-04-17 13:30 51.19752 6.30912 26519 ft 444 kts 302°
2026-04-17 13:30 51.21504 6.26838 27007 ft 447 kts 302°
2026-04-17 13:31 51.23265 6.22740 27469 ft 449 kts 302°
2026-04-17 13:31 51.25034 6.18619 27916 ft 451 kts 302°
2026-04-17 13:31 51.26810 6.14468 28353 ft 454 kts 302°
2026-04-17 13:31 51.28582 6.10286 28777 ft 456 kts 301°
2026-04-17 13:32 51.30324 6.06035 29189 ft 458 kts 301°
2026-04-17 13:32 51.32056 6.01757 29577 ft 460 kts 301°
2026-04-17 13:32 51.33798 5.97462 29963 ft 461 kts 301°
2026-04-17 13:32 51.35568 5.93181 30428 ft 461 kts 303°
2026-04-17 13:33 51.37564 5.89172 30901 ft 460 kts 309°
2026-04-17 13:33 51.39758 5.85456 31395 ft 458 kts 313°
2026-04-17 13:33 51.42110 5.82029 31901 ft 457 kts 318°
2026-04-17 13:33 51.44612 5.78882 32417 ft 455 kts 319°
2026-04-17 13:34 51.47114 5.75793 32882 ft 453 kts 319°
2026-04-17 13:34 51.49584 5.72754 33207 ft 454 kts 319°
2026-04-17 13:34 51.52090 5.69667 33562 ft 453 kts 319°
2026-04-17 13:34 51.54581 5.66584 33958 ft 451 kts 319°
2026-04-17 13:35 51.57060 5.63502 34247 ft 452 kts 319°
2026-04-17 13:35 51.59559 5.60381 34197 ft 456 kts 319°
2026-04-17 13:35 51.64541 5.54142 34196 ft 450 kts 319°
2026-04-17 13:36 51.69461 5.47956 34217 ft 448 kts 319°
2026-04-17 13:36 51.74375 5.41758 34199 ft 448 kts 319°
2026-04-17 13:37 51.79282 5.35553 34191 ft 448 kts 319°
2026-04-17 13:37 51.84188 5.29332 34202 ft 449 kts 319°
2026-04-17 13:38 51.89116 5.23065 34193 ft 451 kts 318°
2026-04-17 13:38 51.94052 5.16771 34206 ft 452 kts 318°
2026-04-17 13:39 51.98985 5.10462 34186 ft 452 kts 318°
2026-04-17 13:39 52.03916 5.04138 34181 ft 451 kts 318°
2026-04-17 13:40 52.08837 4.97808 34183 ft 451 kts 318°
2026-04-17 13:40 52.13749 4.91472 34187 ft 450 kts 318°
2026-04-17 13:41 52.18625 4.85162 34202 ft 451 kts 317°
2026-04-17 13:41 52.23539 4.78787 34190 ft 452 kts 317°
2026-04-17 13:42 52.28461 4.72381 34188 ft 452 kts 317°
2026-04-17 13:42 52.33377 4.65965 34194 ft 453 kts 317°
2026-04-17 13:43 52.38299 4.59522 34193 ft 453 kts 317°
2026-04-17 13:43 52.43216 4.53068 34196 ft 453 kts 317°
2026-04-17 13:44 52.48126 4.46603 34202 ft 453 kts 317°
2026-04-17 13:44 52.53033 4.40123 34193 ft 452 kts 317°
2026-04-17 13:45 52.57931 4.33636 34196 ft 452 kts 317°
2026-04-17 13:45 52.62821 4.27140 34200 ft 452 kts 317°
2026-04-17 13:46 52.67705 4.20633 34192 ft 451 kts 317°
2026-04-17 13:46 52.72584 4.14114 34204 ft 451 kts 316°
2026-04-17 13:47 52.77419 4.07634 34190 ft 450 kts 316°
2026-04-17 13:47 52.82275 4.01107 34197 ft 450 kts 316°
2026-04-17 13:48 52.87133 3.94557 34194 ft 451 kts 316°
2026-04-17 13:48 52.92003 3.87971 34236 ft 454 kts 316°
2026-04-17 13:49 52.94452 3.84653 34477 ft 454 kts 316°
2026-04-17 13:49 52.96895 3.81340 34863 ft 451 kts 316°
2026-04-17 13:49 52.99317 3.78051 35232 ft 449 kts 315°
2026-04-17 13:49 53.01725 3.74774 35550 ft 447 kts 315°
2026-04-17 13:50 53.03349 3.72560 35732 ft 447 kts 315°
2026-04-17 13:50 53.05754 3.69277 35970 ft 447 kts 315°
2026-04-17 13:50 53.08127 3.66033 36090 ft 449 kts 315°
2026-04-17 13:50 53.10553 3.62712 36136 ft 451 kts 315°
2026-04-17 13:51 53.15395 3.56083 36170 ft 449 kts 315°
2026-04-17 13:51 53.20192 3.49485 36184 ft 447 kts 315°
2026-04-17 13:52 53.24649 3.42327 36157 ft 441 kts 305°
2026-04-17 13:52 53.28225 3.34083 36154 ft 436 kts 297°
2026-04-17 13:53 53.31353 3.25388 36142 ft 437 kts 296°
2026-04-17 13:53 53.34472 3.16654 36142 ft 437 kts 296°
2026-04-17 13:54 53.39182 3.03541 36156 ft 439 kts 296°
2026-04-17 13:55 53.43913 2.90371 36145 ft 440 kts 296°
2026-04-17 13:56 53.50192 2.72789 36144 ft 440 kts 296°
2026-04-17 13:56 53.53332 2.63946 36139 ft 440 kts 295°
2026-04-17 13:57 53.56465 2.55094 36145 ft 441 kts 295°
2026-04-17 13:58 53.61160 2.41763 36134 ft 442 kts 295°
2026-04-17 13:58 53.65849 2.28381 36132 ft 442 kts 295°
2026-04-17 13:59 53.70525 2.14962 36131 ft 443 kts 294°
2026-04-17 14:00 53.73622 2.06035 36152 ft 443 kts 293°
2026-04-17 14:00 53.76735 1.97026 36129 ft 444 kts 294°
2026-04-17 14:01 53.79849 1.87984 36127 ft 444 kts 293°
2026-04-17 14:01 53.82954 1.78937 36114 ft 445 kts 293°
2026-04-17 14:02 53.86051 1.69878 36113 ft 445 kts 293°
2026-04-17 14:02 53.89123 1.60861 36113 ft 445 kts 293°
2026-04-17 14:03 53.92211 1.51761 36120 ft 446 kts 292°
2026-04-17 14:03 53.95300 1.42623 36100 ft 446 kts 292°
2026-04-17 14:04 53.98384 1.33467 36098 ft 447 kts 292°
2026-04-17 14:04 54.01466 1.24282 36098 ft 447 kts 292°
2026-04-17 14:05 54.04543 1.15082 36086 ft 447 kts 292°
2026-04-17 14:05 54.07616 1.05855 36087 ft 447 kts 292°
2026-04-17 14:06 54.10658 0.96688 36089 ft 448 kts 291°
2026-04-17 14:06 54.13717 0.87432 36081 ft 448 kts 291°
2026-04-17 14:07 54.16777 0.78137 36064 ft 449 kts 291°
2026-04-17 14:07 54.19827 0.68843 36070 ft 449 kts 291°
2026-04-17 14:08 54.22870 0.59530 36063 ft 449 kts 291°
2026-04-17 14:08 54.25909 0.50196 36091 ft 450 kts 290°
2026-04-17 14:09 54.28949 0.40819 36062 ft 451 kts 290°
2026-04-17 14:09 54.31984 0.31427 36059 ft 451 kts 290°
2026-04-17 14:10 54.34989 0.22089 36035 ft 450 kts 290°
2026-04-17 14:10 54.38002 0.12689 36040 ft 450 kts 290°
2026-04-17 14:11 54.41016 0.03250 36043 ft 450 kts 290°
2026-04-17 14:11 54.44016 -0.06187 36038 ft 452 kts 290°
2026-04-17 14:12 54.47035 -0.15722 36028 ft 455 kts 290°
2026-04-17 14:12 54.50069 -0.25339 36057 ft 457 kts 289°
2026-04-17 14:13 54.54618 -0.39820 36023 ft 458 kts 289°
2026-04-17 14:13 54.57612 -0.49398 36009 ft 456 kts 289°
2026-04-17 14:14 54.60608 -0.59021 36006 ft 454 kts 289°
2026-04-17 14:14 54.63584 -0.68622 35998 ft 453 kts 289°
2026-04-17 14:15 54.66545 -0.78218 35997 ft 452 kts 289°
2026-04-17 14:15 54.69487 -0.87790 35987 ft 451 kts 289°
2026-04-17 14:16 54.72420 -0.97375 35986 ft 451 kts 289°
2026-04-17 14:16 54.75345 -1.06968 36011 ft 451 kts 288°
2026-04-17 14:17 54.78285 -1.16666 35988 ft 458 kts 288°
2026-04-17 14:17 54.81254 -1.26494 35981 ft 462 kts 288°
2026-04-17 14:18 54.84223 -1.36340 35968 ft 464 kts 288°
2026-04-17 14:18 54.87205 -1.46269 35959 ft 464 kts 288°
2026-04-17 14:19 54.90171 -1.56187 35960 ft 462 kts 288°
2026-04-17 14:19 54.93122 -1.66106 35991 ft 461 kts 288°
2026-04-17 14:20 54.96059 -1.76021 35971 ft 460 kts 288°
2026-04-17 14:20 54.98980 -1.85924 35970 ft 459 kts 288°
2026-04-17 14:21 55.01872 -1.95771 35951 ft 459 kts 288°
2026-04-17 14:21 55.04775 -2.05700 35945 ft 459 kts 288°
2026-04-17 14:22 55.07671 -2.15646 35943 ft 460 kts 288°
2026-04-17 14:22 55.10571 -2.25649 35942 ft 463 kts 288°
2026-04-17 14:23 55.13476 -2.35716 35947 ft 465 kts 288°
2026-04-17 14:23 55.16383 -2.45825 35937 ft 466 kts 288°
2026-04-17 14:24 55.19295 -2.55989 35938 ft 467 kts 288°
2026-04-17 14:24 55.22197 -2.66169 35942 ft 468 kts 287°
2026-04-17 14:25 55.25095 -2.76381 35967 ft 468 kts 288°
2026-04-17 14:25 55.27976 -2.86586 35922 ft 471 kts 288°
2026-04-17 14:26 55.30874 -2.96887 35917 ft 471 kts 288°
2026-04-17 14:26 55.33772 -3.07230 35909 ft 472 kts 288°
2026-04-17 14:27 55.36661 -3.17588 35912 ft 472 kts 288°
2026-04-17 14:27 55.39539 -3.27959 35910 ft 472 kts 288°
2026-04-17 14:28 55.42410 -3.38347 35901 ft 473 kts 288°
2026-04-17 14:28 55.45275 -3.48767 35888 ft 472 kts 288°
2026-04-17 14:29 55.48127 -3.59187 35910 ft 472 kts 288°
2026-04-17 14:29 55.50974 -3.69634 35890 ft 473 kts 288°
2026-04-17 14:30 55.53802 -3.80062 35871 ft 474 kts 288°
2026-04-17 14:30 55.56644 -3.90583 35906 ft 474 kts 288°
2026-04-17 14:31 55.59480 -4.01132 35875 ft 476 kts 288°
2026-04-17 14:31 55.62313 -4.11724 35862 ft 476 kts 288°
2026-04-17 14:32 55.65143 -4.22348 35858 ft 477 kts 288°
2026-04-17 14:32 55.67965 -4.32992 35858 ft 478 kts 288°
2026-04-17 14:33 55.70780 -4.43664 35869 ft 478 kts 288°
2026-04-17 14:33 55.73588 -4.54359 35864 ft 479 kts 288°
2026-04-17 14:34 55.76392 -4.65090 35857 ft 479 kts 288°
2026-04-17 14:34 55.79187 -4.75834 35836 ft 479 kts 288°
2026-04-17 14:35 55.81955 -4.86525 35843 ft 479 kts 288°
2026-04-17 14:35 55.84736 -4.97327 35838 ft 481 kts 288°
2026-04-17 14:36 55.87511 -5.08151 35863 ft 480 kts 288°
2026-04-17 14:36 55.90275 -5.18982 35827 ft 480 kts 288°
2026-04-17 14:37 55.93026 -5.29818 35809 ft 479 kts 288°
2026-04-17 14:37 55.95765 -5.40657 35808 ft 479 kts 288°
2026-04-17 14:38 55.98474 -5.51434 35800 ft 478 kts 288°
2026-04-17 14:38 56.01189 -5.62283 35800 ft 478 kts 288°
2026-04-17 14:39 56.03888 -5.73128 35813 ft 478 kts 288°
2026-04-17 14:39 56.06585 -5.84019 35796 ft 479 kts 288°
2026-04-17 14:40 56.08824 -5.93097 35789 ft 479 kts 288°
2026-04-17 14:40 56.11509 -6.04032 35790 ft 479 kts 288°
2026-04-17 14:41 56.14182 -6.14975 35790 ft 479 kts 288°
2026-04-17 14:41 56.16847 -6.25943 35783 ft 480 kts 288°
2026-04-17 14:42 56.19505 -6.36937 35777 ft 480 kts 288°
2026-04-17 14:42 56.22155 -6.47951 35766 ft 481 kts 288°
2026-04-17 14:43 56.24799 -6.58997 35754 ft 481 kts 288°
2026-04-17 14:43 56.27418 -6.69992 35749 ft 481 kts 288°
2026-04-17 14:44 56.30041 -6.81064 35752 ft 481 kts 287°
2026-04-17 14:44 56.32656 -6.92156 35775 ft 481 kts 288°
2026-04-17 14:45 56.35267 -7.03290 35748 ft 481 kts 287°
2026-04-17 14:45 56.37864 -7.14422 35748 ft 482 kts 288°
2026-04-17 14:46 56.40453 -7.25577 35735 ft 482 kts 287°
2026-04-17 14:46 56.43017 -7.36685 35721 ft 482 kts 287°
2026-04-17 14:47 56.45589 -7.47883 35699 ft 482 kts 287°
2026-04-17 14:47 56.48150 -7.59093 35698 ft 483 kts 287°
2026-04-17 14:48 56.50707 -7.70343 35674 ft 482 kts 287°
2026-04-17 14:48 56.53249 -7.81590 35673 ft 482 kts 287°
2026-04-17 14:49 56.55778 -7.92839 35655 ft 482 kts 287°
2026-04-17 14:49 56.58282 -8.04036 35659 ft 481 kts 287°
2026-04-17 14:50 56.60792 -8.15316 35655 ft 482 kts 286°
2026-04-17 14:50 56.63294 -8.26631 35628 ft 482 kts 287°
2026-04-17 14:51 56.65787 -8.37955 35628 ft 482 kts 287°
2026-04-17 14:51 56.68249 -8.49205 35601 ft 482 kts 287°
2026-04-17 14:52 56.70723 -8.60572 35602 ft 481 kts 287°
2026-04-17 14:52 56.73179 -8.71914 35585 ft 481 kts 286°
2026-04-17 14:53 56.75610 -8.83208 35588 ft 481 kts 286°
2026-04-17 14:53 56.78047 -8.94592 35564 ft 481 kts 285°
2026-04-17 14:54 56.80476 -9.05996 35562 ft 481 kts 287°
2026-04-17 14:54 56.82891 -9.17405 35540 ft 481 kts 286°
2026-04-17 14:55 56.85284 -9.28768 35529 ft 482 kts 286°
2026-04-17 14:55 56.87684 -9.40228 35542 ft 482 kts 285°
2026-04-17 14:56 56.90070 -9.51697 35529 ft 482 kts 287°
2026-04-17 14:56 56.92439 -9.63120 35523 ft 482 kts 287°
2026-04-17 14:57 56.94808 -9.74618 35515 ft 482 kts 286°
2026-04-17 14:57 56.97174 -9.86152 35515 ft 482 kts 286°
2026-04-17 14:58 56.99507 -9.97598 35510 ft 482 kts 287°
2026-04-17 14:58 57.02167 -10.08943 35524 ft 484 kts 291°
2026-04-17 14:59 57.05007 -10.20192 35504 ft 485 kts 291°
2026-04-17 14:59 57.07827 -10.31381 35493 ft 485 kts 291°
2026-04-17 15:00 57.10642 -10.42676 35495 ft 485 kts 291°
2026-04-17 15:00 57.13434 -10.53977 35487 ft 484 kts 290°
2026-04-17 15:01 57.16212 -10.65285 35481 ft 484 kts 290°
2026-04-17 15:01 57.18962 -10.76534 35500 ft 484 kts 290°
2026-04-17 15:02 57.21721 -10.87879 35487 ft 484 kts 290°
2026-04-17 15:02 57.24471 -10.99244 35476 ft 484 kts 290°
2026-04-17 15:03 57.27206 -11.10609 35477 ft 484 kts 290°
2026-04-17 15:03 57.29932 -11.21994 35477 ft 484 kts 290°
2026-04-17 15:04 57.32628 -11.33312 35474 ft 483 kts 290°
2026-04-17 15:04 57.35328 -11.44709 35489 ft 483 kts 290°
2026-04-17 15:05 57.38019 -11.56123 35480 ft 483 kts 290°
2026-04-17 15:05 57.40694 -11.67536 35459 ft 483 kts 290°
2026-04-17 15:06 57.43360 -11.78967 35479 ft 482 kts 290°
2026-04-17 15:06 57.46015 -11.90413 35484 ft 482 kts 290°
2026-04-17 15:07 57.48658 -12.01869 35461 ft 482 kts 290°
2026-04-17 15:07 57.51291 -12.13346 35478 ft 483 kts 290°
2026-04-17 15:08 57.53916 -12.24844 35469 ft 482 kts 289°
2026-04-17 15:08 57.56527 -12.36348 35465 ft 482 kts 289°
2026-04-17 15:09 57.59124 -12.47852 35475 ft 482 kts 289°
2026-04-17 15:09 57.61712 -12.59379 35469 ft 482 kts 289°
2026-04-17 15:10 57.64290 -12.70925 35473 ft 482 kts 289°
2026-04-17 15:11 57.68126 -12.88222 35471 ft 483 kts 289°
2026-04-17 15:11 57.70685 -12.99841 35478 ft 483 kts 289°
2026-04-17 15:12 57.73232 -13.11472 35478 ft 483 kts 289°
2026-04-17 15:12 57.75770 -13.23124 35490 ft 483 kts 289°
2026-04-17 15:13 57.78295 -13.34785 35490 ft 483 kts 289°
2026-04-17 15:13 57.80815 -13.46485 35484 ft 484 kts 288°
2026-04-17 15:14 57.83322 -13.58198 35507 ft 484 kts 288°
2026-04-17 15:14 57.85819 -13.69919 35498 ft 483 kts 287°
2026-04-17 15:15 57.88303 -13.81646 35498 ft 483 kts 288°
2026-04-17 15:15 57.90770 -13.93367 35507 ft 481 kts 287°
2026-04-17 15:16 57.93216 -14.05067 35515 ft 481 kts 288°
2026-04-17 15:16 57.95654 -14.16780 35525 ft 480 kts 288°
2026-04-17 15:17 57.98076 -14.28497 35523 ft 480 kts 288°
2026-04-17 15:17 58.00476 -14.40158 35529 ft 480 kts 288°
2026-04-17 15:18 58.02895 -14.51986 35523 ft 480 kts 288°
2026-04-17 15:18 58.05272 -14.63670 35554 ft 480 kts 287°
2026-04-17 15:19 58.07666 -14.75527 35548 ft 480 kts 288°
2026-04-17 15:19 58.10034 -14.87311 35553 ft 479 kts 287°
2026-04-17 15:20 58.12390 -14.99115 35566 ft 480 kts 288°
2026-04-17 15:20 58.14723 -15.10861 35563 ft 480 kts 287°
2026-04-17 15:21 58.17064 -15.22724 35568 ft 481 kts 287°
2026-04-17 15:21 58.19395 -15.34605 35575 ft 481 kts 287°
2026-04-17 15:22 58.21713 -15.46500 35564 ft 481 kts 287°
2026-04-17 15:22 58.24022 -15.58411 35577 ft 481 kts 287°
2026-04-17 15:23 58.26318 -15.70336 35585 ft 481 kts 287°
2026-04-17 15:23 58.28605 -15.82278 35583 ft 481 kts 287°
2026-04-17 15:24 58.30881 -15.94241 35595 ft 481 kts 287°
2026-04-17 15:24 58.33142 -16.06205 35597 ft 481 kts 287°
2026-04-17 15:25 58.35396 -16.18197 35603 ft 481 kts 287°
2026-04-17 15:25 58.37635 -16.30191 35601 ft 481 kts 287°
2026-04-17 15:26 58.39870 -16.42234 35615 ft 481 kts 286°
2026-04-17 15:26 58.42075 -16.54191 35610 ft 481 kts 285°
2026-04-17 15:27 58.44283 -16.66243 35619 ft 481 kts 286°
2026-04-17 15:27 58.46478 -16.78304 35617 ft 481 kts 286°
2026-04-17 15:28 58.48662 -16.90377 35628 ft 480 kts 286°
2026-04-17 15:28 58.50834 -17.02464 35633 ft 481 kts 286°
2026-04-17 15:29 58.52999 -17.14585 35637 ft 481 kts 285°
2026-04-17 15:29 58.54790 -17.24672 35650 ft 481 kts 284°
2026-04-17 15:30 58.56932 -17.36822 35640 ft 482 kts 285°
2026-04-17 15:30 58.59079 -17.49068 35647 ft 481 kts 285°
2026-04-17 15:31 58.61187 -17.61170 35655 ft 482 kts 284°
2026-04-17 15:31 58.63297 -17.73366 35654 ft 481 kts 284°
2026-04-17 15:32 58.65394 -17.85567 35690 ft 481 kts 284°
2026-04-17 15:32 58.67482 -17.97803 35679 ft 481 kts 283°
2026-04-17 15:33 58.69551 -18.10018 35675 ft 481 kts 285°
2026-04-17 15:33 58.71614 -18.22264 35676 ft 481 kts 283°
2026-04-17 15:34 58.73659 -18.34495 35696 ft 480 kts 283°
2026-04-17 15:34 58.75692 -18.46741 35713 ft 480 kts 284°
2026-04-17 15:35 58.77713 -18.58991 35710 ft 480 kts 284°
2026-04-17 15:35 58.79710 -18.71183 35704 ft 480 kts 284°
2026-04-17 15:36 58.81709 -18.83465 35711 ft 480 kts 284°
2026-04-17 15:36 58.83697 -18.95767 35719 ft 480 kts 283°
2026-04-17 15:37 58.85670 -19.08077 35725 ft 480 kts 283°
2026-04-17 15:37 58.87635 -19.20402 35734 ft 480 kts 283°
2026-04-17 15:38 58.89589 -19.32757 35731 ft 480 kts 283°
2026-04-17 15:38 58.91534 -19.45139 35751 ft 481 kts 283°
2026-04-17 15:39 58.93465 -19.57525 35739 ft 481 kts 283°
2026-04-17 15:39 58.95386 -19.69920 35737 ft 480 kts 283°
2026-04-17 15:40 58.97298 -19.82342 35747 ft 481 kts 283°
2026-04-17 15:40 58.99200 -19.94774 35741 ft 481 kts 283°
2026-04-17 15:41 59.01053 -20.07245 35756 ft 481 kts 282°
2026-04-17 15:41 59.02787 -20.19692 35750 ft 480 kts 281°
2026-04-17 15:42 59.04500 -20.32139 35763 ft 480 kts 282°
2026-04-17 15:42 59.06230 -20.44674 35759 ft 481 kts 282°
2026-04-17 15:43 59.07956 -20.57219 35762 ft 480 kts 282°
2026-04-17 15:43 59.09671 -20.69771 35783 ft 480 kts 282°
2026-04-17 15:44 59.11373 -20.82340 35776 ft 481 kts 281°
2026-04-17 15:44 59.13066 -20.94932 35793 ft 481 kts 281°
2026-04-17 15:45 59.14744 -21.07524 35775 ft 480 kts 281°
2026-04-17 15:45 59.16410 -21.20134 35778 ft 480 kts 281°
2026-04-17 15:46 59.18060 -21.32722 35786 ft 479 kts 280°
2026-04-17 15:46 59.19687 -21.45234 35787 ft 479 kts 281°
2026-04-17 15:47 59.21310 -21.57838 35792 ft 478 kts 281°
2026-04-17 15:47 59.22920 -21.70439 35824 ft 478 kts 281°
2026-04-17 15:48 59.24519 -21.83064 35800 ft 479 kts 281°
2026-04-17 15:48 59.26108 -21.95709 35803 ft 479 kts 280°
2026-04-17 15:49 59.27682 -22.08349 35796 ft 479 kts 280°
2026-04-17 15:49 59.29245 -22.21010 35799 ft 479 kts 280°
2026-04-17 15:50 59.30795 -22.33678 35801 ft 479 kts 280°
2026-04-17 15:50 59.32323 -22.46278 35809 ft 479 kts 280°
2026-04-17 15:51 59.33848 -22.58962 35810 ft 478 kts 280°
2026-04-17 15:51 59.35358 -22.71638 35820 ft 478 kts 279°
2026-04-17 15:52 59.36856 -22.84332 35812 ft 477 kts 279°
2026-04-17 15:52 59.38339 -22.97009 35814 ft 477 kts 279°
2026-04-17 15:53 59.39811 -23.09712 35816 ft 477 kts 279°
2026-04-17 15:53 59.41272 -23.22428 35814 ft 477 kts 279°
2026-04-17 15:54 59.42717 -23.35138 35821 ft 477 kts 279°
2026-04-17 15:54 59.44151 -23.47854 35815 ft 476 kts 279°
2026-04-17 15:55 59.45563 -23.60502 35814 ft 476 kts 279°
2026-04-17 15:55 59.46967 -23.73206 35816 ft 475 kts 279°
2026-04-17 15:56 59.48360 -23.85922 35814 ft 475 kts 279°
2026-04-17 15:56 59.49738 -23.98631 35811 ft 475 kts 278°
2026-04-17 15:57 59.51104 -24.11354 35824 ft 474 kts 278°
2026-04-17 15:57 59.52456 -24.24062 35811 ft 474 kts 278°
2026-04-17 15:58 59.53793 -24.36761 35814 ft 473 kts 278°
2026-04-17 15:58 59.55115 -24.49442 35816 ft 472 kts 278°
2026-04-17 15:59 59.56424 -24.62130 35818 ft 471 kts 278°
2026-04-17 15:59 59.57709 -24.74713 35830 ft 471 kts 278°
2026-04-17 16:00 59.58992 -24.87410 35830 ft 472 kts 278°
2026-04-17 16:00 59.60263 -25.00114 35818 ft 472 kts 278°
2026-04-17 16:01 59.61521 -25.12813 35812 ft 471 kts 278°
2026-04-17 16:01 59.62765 -25.25513 35807 ft 470 kts 278°
2026-04-17 16:02 59.63995 -25.38202 35805 ft 470 kts 277°
2026-04-17 16:02 59.65212 -25.50886 35805 ft 470 kts 277°
2026-04-17 16:03 59.66417 -25.63591 35802 ft 470 kts 277°
2026-04-17 16:03 59.67601 -25.76210 35807 ft 469 kts 277°
2026-04-17 16:04 59.68779 -25.88905 35805 ft 469 kts 277°
2026-04-17 16:04 59.69945 -26.01604 35792 ft 469 kts 277°
2026-04-17 16:05 59.71096 -26.14295 35791 ft 468 kts 277°
2026-04-17 16:05 59.72236 -26.26997 35791 ft 468 kts 277°
2026-04-17 16:06 59.73364 -26.39715 35795 ft 468 kts 277°
2026-04-17 16:06 59.74479 -26.52436 35795 ft 468 kts 276°
2026-04-17 16:07 59.75580 -26.65145 35780 ft 467 kts 276°
2026-04-17 16:07 59.76669 -26.77855 35782 ft 467 kts 276°
2026-04-17 16:08 59.77736 -26.90464 35785 ft 467 kts 276°
2026-04-17 16:08 59.78798 -27.03176 35777 ft 467 kts 276°
2026-04-17 16:09 59.79850 -27.15912 35774 ft 467 kts 276°
2026-04-17 16:09 59.80887 -27.28635 35772 ft 467 kts 276°
2026-04-17 16:10 59.81913 -27.41371 35769 ft 466 kts 276°
2026-04-17 16:10 59.82926 -27.54095 35771 ft 466 kts 276°
2026-04-17 16:11 59.83924 -27.66814 35758 ft 465 kts 276°
2026-04-17 16:11 59.84910 -27.79535 35752 ft 465 kts 276°
2026-04-17 16:12 59.85876 -27.92160 35768 ft 465 kts 275°
2026-04-17 16:12 59.86843 -28.04973 35760 ft 465 kts 275°
2026-04-17 16:13 59.87787 -28.17646 35750 ft 466 kts 275°
2026-04-17 16:13 59.88726 -28.30418 35754 ft 466 kts 275°
2026-04-17 16:14 59.90112 -28.49609 35754 ft 467 kts 275°
2026-04-17 16:14 59.91021 -28.62414 35756 ft 467 kts 275°
2026-04-17 16:15 59.91918 -28.75232 35759 ft 467 kts 275°
2026-04-17 16:15 59.92802 -28.88050 35752 ft 467 kts 275°
2026-04-17 16:16 59.93674 -29.00880 35764 ft 467 kts 274°
2026-04-17 16:16 59.94529 -29.13634 35761 ft 467 kts 274°
2026-04-17 16:17 59.95376 -29.26471 35763 ft 466 kts 274°
2026-04-17 16:17 59.96209 -29.39280 35753 ft 465 kts 274°
2026-04-17 16:18 59.97028 -29.52064 35759 ft 464 kts 274°
2026-04-17 16:18 59.97834 -29.64848 35764 ft 464 kts 274°
2026-04-17 16:19 59.98496 -29.75477 35773 ft 464 kts 274°
2026-04-17 16:19 59.99284 -29.88254 35765 ft 463 kts 274°
2026-04-17 16:20 60.00169 -30.03104 35792 ft 463 kts 272°
2026-04-17 16:20 60.00673 -30.15938 35784 ft 463 kts 270°
2026-04-17 16:21 60.01005 -30.26708 35764 ft 463 kts 270°
2026-04-17 16:21 60.01414 -30.39560 35766 ft 464 kts 270°
2026-04-17 16:22 60.01841 -30.52341 35771 ft 464 kts 270°
2026-04-17 16:22 60.02271 -30.65223 35777 ft 464 kts 271°
2026-04-17 16:23 60.02691 -30.78104 35772 ft 464 kts 270°
2026-04-17 16:23 60.03097 -30.90987 35774 ft 464 kts 270°
2026-04-17 16:24 60.03490 -31.03867 35776 ft 464 kts 270°
2026-04-17 16:24 60.03869 -31.16733 35795 ft 463 kts 270°
2026-04-17 16:25 60.04236 -31.29621 35782 ft 464 kts 270°
2026-04-17 16:25 60.04591 -31.42514 35790 ft 464 kts 270°
2026-04-17 16:26 60.04933 -31.55386 35770 ft 463 kts 270°
2026-04-17 16:26 60.05259 -31.68151 35765 ft 462 kts 270°
2026-04-17 16:27 60.05575 -31.80982 35766 ft 460 kts 270°
2026-04-17 16:27 60.05877 -31.93774 35771 ft 460 kts 269°
2026-04-17 16:28 60.06166 -32.06547 35768 ft 460 kts 269°
2026-04-17 16:28 60.06443 -32.19343 35767 ft 460 kts 270°
2026-04-17 16:29 60.06708 -32.32133 35807 ft 460 kts 269°
2026-04-17 16:29 60.06961 -32.44936 35776 ft 461 kts 269°
2026-04-17 16:30 60.07202 -32.57766 35761 ft 461 kts 269°
2026-04-17 16:30 60.07429 -32.70523 35757 ft 462 kts 269°
2026-04-17 16:31 60.07646 -32.83391 35762 ft 462 kts 269°
2026-04-17 16:31 60.07850 -32.96255 35757 ft 462 kts 269°
2026-04-17 16:32 60.08042 -33.09111 35755 ft 461 kts 269°
2026-04-17 16:32 60.08220 -33.21931 35741 ft 459 kts 269°
2026-04-17 16:33 60.08386 -33.34700 35746 ft 458 kts 268°
2026-04-17 16:33 60.08537 -33.47358 35763 ft 457 kts 268°
2026-04-17 16:34 60.08678 -33.60103 35739 ft 458 kts 268°
2026-04-17 16:34 60.08806 -33.72850 35739 ft 458 kts 268°
2026-04-17 16:35 60.08922 -33.85602 35739 ft 458 kts 268°
2026-04-17 16:35 60.09027 -33.98350 35716 ft 456 kts 268°
2026-04-17 16:36 60.09119 -34.11039 35713 ft 455 kts 268°
2026-04-17 16:36 60.09197 -34.23687 35714 ft 453 kts 267°
2026-04-17 16:37 60.09264 -34.36296 35711 ft 452 kts 267°
2026-04-17 16:37 60.09318 -34.48906 35703 ft 452 kts 267°
2026-04-17 16:38 60.09360 -34.61526 35698 ft 453 kts 267°
2026-04-17 16:38 60.09391 -34.74147 35699 ft 453 kts 267°
2026-04-17 16:39 60.09410 -34.86673 35680 ft 452 kts 267°
2026-04-17 16:39 60.09416 -34.99273 35679 ft 452 kts 266°
2026-04-17 16:40 60.09411 -35.11840 35684 ft 451 kts 266°
2026-04-17 16:40 60.09394 -35.24416 35679 ft 451 kts 266°
2026-04-17 16:41 60.09365 -35.36991 35681 ft 451 kts 266°
2026-04-17 16:41 60.09323 -35.49556 35677 ft 451 kts 266°
2026-04-17 16:42 60.09271 -35.62125 35683 ft 450 kts 266°
2026-04-17 16:42 60.09206 -35.74647 35690 ft 449 kts 266°
2026-04-17 16:43 60.09130 -35.87178 35680 ft 450 kts 266°
2026-04-17 16:43 60.09042 -35.99713 35656 ft 450 kts 266°
2026-04-17 16:44 60.08941 -36.12270 35660 ft 451 kts 265°
2026-04-17 16:44 60.08830 -36.24749 35647 ft 451 kts 266°
2026-04-17 16:45 60.08705 -36.37322 35640 ft 451 kts 265°
2026-04-17 16:45 60.08569 -36.49874 35651 ft 451 kts 265°
2026-04-17 16:46 60.08422 -36.62424 35655 ft 450 kts 265°
2026-04-17 16:46 60.08262 -36.74964 35624 ft 450 kts 265°
2026-04-17 16:47 60.08090 -36.87508 35618 ft 451 kts 265°
2026-04-17 16:47 60.07908 -37.00060 35639 ft 451 kts 265°
2026-04-17 16:48 60.07714 -37.12545 35638 ft 451 kts 265°
2026-04-17 16:48 60.07507 -37.25033 35616 ft 448 kts 265°
2026-04-17 16:49 60.07288 -37.37526 35608 ft 450 kts 265°
2026-04-17 16:49 60.07060 -37.50003 35618 ft 447 kts 265°
2026-04-17 16:50 60.06820 -37.62438 35613 ft 447 kts 264°
2026-04-17 16:50 60.06568 -37.74849 35610 ft 445 kts 264°
2026-04-17 16:51 60.06301 -37.87319 35594 ft 451 kts 264°
2026-04-17 16:51 60.06027 -37.99764 35598 ft 446 kts 265°
2026-04-17 16:52 60.05740 -38.12191 35612 ft 449 kts 264°
2026-04-17 16:52 60.05447 -38.24451 35587 ft 440 kts 264°
2026-04-17 16:53 60.05138 -38.36757 35600 ft 444 kts 264°
2026-04-17 16:53 60.04820 -38.49051 35599 ft 441 kts 264°
2026-04-17 16:54 60.04486 -38.61412 35573 ft 448 kts 263°
2026-04-17 16:54 60.04143 -38.73806 35574 ft 445 kts 264°
2026-04-17 16:55 60.03789 -38.86173 35582 ft 444 kts 264°
2026-04-17 16:55 60.03428 -38.98403 35573 ft 440 kts 264°
2026-04-17 16:56 60.03054 -39.10596 35573 ft 443 kts 263°
2026-04-17 16:56 60.02668 -39.22862 35555 ft 443 kts 264°
2026-04-17 16:57 60.02269 -39.35197 35601 ft 443 kts 263°
2026-04-17 16:57 60.01861 -39.47448 35548 ft 442 kts 264°
2026-04-17 16:58 60.01440 -39.59755 35565 ft 442 kts 263°
2026-04-17 16:58 60.01013 -39.71977 35567 ft 440 kts 263°
2026-04-17 16:59 60.00576 -39.84183 35575 ft 438 kts 263°
2026-04-17 16:59 60.00128 -39.96347 35562 ft 442 kts 263°
2026-04-17 17:00 59.99570 -40.08617 35559 ft 443 kts 261°
2026-04-17 17:00 59.98781 -40.20826 35576 ft 443 kts 260°
2026-04-17 17:01 59.97979 -40.32933 35575 ft 442 kts 261°
2026-04-17 17:01 59.97187 -40.45197 35586 ft 446 kts 260°
2026-04-17 17:02 59.96414 -40.57303 35557 ft 437 kts 261°
2026-04-17 17:02 59.95632 -40.69394 35575 ft 440 kts 260°
2026-04-17 17:03 59.94838 -40.81533 35566 ft 444 kts 260°
2026-04-17 17:03 59.94026 -40.93737 35551 ft 442 kts 261°
2026-04-17 17:04 59.93213 -41.05792 35560 ft 441 kts 261°
2026-04-17 17:04 59.92381 -41.17939 35568 ft 444 kts 261°
2026-04-17 17:05 59.91530 -41.30196 35589 ft 448 kts 260°
2026-04-17 17:05 59.90665 -41.42498 35563 ft 450 kts 260°
2026-04-17 17:06 59.89790 -41.54785 35578 ft 444 kts 260°
2026-04-17 17:06 59.88913 -41.66918 35617 ft 443 kts 260°
2026-04-17 17:07 59.88027 -41.79020 35593 ft 441 kts 260°
2026-04-17 17:07 59.87123 -41.91192 35597 ft 447 kts 259°
2026-04-17 17:08 59.86207 -42.03373 35588 ft 449 kts 259°
2026-04-17 17:08 59.85272 -42.15661 35601 ft 449 kts 259°
2026-04-17 17:09 59.84324 -42.27951 35598 ft 449 kts 259°
2026-04-17 17:09 59.83368 -42.40205 35589 ft 448 kts 259°
2026-04-17 17:10 59.82401 -42.52433 35603 ft 447 kts 259°
2026-04-17 17:10 59.81427 -42.64610 35600 ft 445 kts 259°
2026-04-17 17:11 59.80444 -42.76739 35615 ft 444 kts 259°
2026-04-17 17:11 59.79458 -42.88765 35628 ft 444 kts 259°
2026-04-17 17:12 59.78453 -43.00879 35608 ft 445 kts 259°
2026-04-17 17:12 59.77436 -43.13004 35619 ft 445 kts 258°
2026-04-17 17:13 59.76581 -43.23092 35619 ft 446 kts 258°
2026-04-17 17:13 59.75540 -43.35237 35606 ft 447 kts 258°
2026-04-17 17:14 59.74314 -43.49371 35618 ft 448 kts 258°
2026-04-17 17:15 59.72881 -43.65674 35622 ft 449 kts 258°
2026-04-17 17:15 59.71792 -43.77892 35621 ft 450 kts 258°
2026-04-17 17:16 59.70699 -43.90028 35619 ft 451 kts 258°
2026-04-17 17:16 59.69586 -44.02252 35635 ft 451 kts 258°
2026-04-17 17:17 59.68462 -44.14459 35637 ft 452 kts 258°
2026-04-17 17:17 59.67323 -44.26694 35647 ft 452 kts 258°
2026-04-17 17:18 59.66172 -44.38930 35641 ft 452 kts 258°
2026-04-17 17:18 59.65011 -44.51154 35648 ft 452 kts 258°
2026-04-17 17:19 59.63837 -44.63369 35652 ft 452 kts 258°
2026-04-17 17:19 59.62662 -44.75488 35657 ft 452 kts 257°
2026-04-17 17:20 59.61467 -44.87679 35657 ft 451 kts 257°
2026-04-17 17:20 59.60263 -44.99832 35651 ft 450 kts 257°
2026-04-17 17:21 59.59051 -45.11950 35657 ft 449 kts 257°
2026-04-17 17:21 59.57831 -45.24031 35660 ft 448 kts 257°
2026-04-17 17:22 59.56601 -45.36078 35659 ft 448 kts 257°
2026-04-17 17:22 59.55358 -45.48142 35659 ft 449 kts 257°
2026-04-17 17:23 59.54104 -45.60199 35653 ft 449 kts 257°
2026-04-17 17:23 59.52839 -45.72248 35668 ft 449 kts 257°
2026-04-17 17:24 59.51570 -45.84229 35663 ft 450 kts 257°
2026-04-17 17:24 59.50280 -45.96284 35652 ft 450 kts 256°
2026-04-17 17:25 59.48979 -46.08331 35657 ft 450 kts 256°
2026-04-17 17:25 59.47666 -46.20377 35654 ft 450 kts 256°
2026-04-17 17:26 59.46343 -46.32399 35652 ft 450 kts 256°
2026-04-17 17:26 59.45008 -46.44431 35659 ft 449 kts 256°
2026-04-17 17:27 59.43666 -46.56415 35663 ft 449 kts 256°
2026-04-17 17:27 59.42314 -46.68374 35660 ft 448 kts 256°
2026-04-17 17:28 59.40954 -46.80298 35665 ft 447 kts 256°
2026-04-17 17:28 59.39584 -46.92210 35665 ft 447 kts 256°
2026-04-17 17:29 59.38205 -47.04098 35665 ft 447 kts 256°
2026-04-17 17:29 59.36815 -47.15969 35656 ft 446 kts 256°
2026-04-17 17:30 59.35415 -47.27833 35664 ft 446 kts 256°
2026-04-17 17:30 59.34006 -47.39674 35668 ft 446 kts 256°
2026-04-17 17:31 59.32594 -47.51430 35668 ft 446 kts 255°
2026-04-17 17:31 59.31163 -47.63257 35696 ft 447 kts 255°
2026-04-17 17:32 59.29717 -47.75105 35672 ft 448 kts 255°
2026-04-17 17:32 59.28258 -47.86961 35661 ft 448 kts 255°
2026-04-17 17:33 59.26790 -47.98793 35660 ft 448 kts 255°
2026-04-17 17:33 59.25308 -48.10642 35669 ft 448 kts 255°
2026-04-17 17:34 59.23818 -48.22458 35672 ft 448 kts 255°
2026-04-17 17:34 59.22327 -48.34187 35670 ft 448 kts 255°
2026-04-17 17:35 59.20814 -48.45991 35660 ft 448 kts 255°
2026-04-17 17:35 59.19294 -48.57765 35648 ft 448 kts 255°
2026-04-17 17:36 59.17764 -48.69522 35662 ft 447 kts 255°
2026-04-17 17:36 59.16222 -48.81273 35676 ft 447 kts 255°
2026-04-17 17:37 59.14670 -48.93014 35664 ft 448 kts 255°
2026-04-17 17:37 59.13107 -49.04756 35651 ft 448 kts 255°
2026-04-17 17:38 59.11531 -49.16501 35650 ft 448 kts 255°
2026-04-17 17:38 59.09943 -49.28242 35634 ft 448 kts 255°
2026-04-17 17:39 59.08358 -49.39881 35656 ft 448 kts 255°
2026-04-17 17:39 59.06752 -49.51583 35643 ft 448 kts 255°
2026-04-17 17:40 59.05138 -49.63269 35648 ft 447 kts 254°
2026-04-17 17:40 59.03515 -49.74935 35638 ft 447 kts 254°
2026-04-17 17:41 59.01887 -49.86592 35642 ft 447 kts 254°
2026-04-17 17:41 59.00232 -49.98232 35626 ft 448 kts 253°
2026-04-17 17:42 58.98031 -50.09529 35630 ft 448 kts 248°
2026-04-17 17:42 58.95627 -50.20655 35644 ft 448 kts 248°
2026-04-17 17:43 58.93230 -50.31800 35645 ft 448 kts 248°
2026-04-17 17:43 58.90842 -50.42939 35654 ft 448 kts 248°
2026-04-17 17:44 58.88467 -50.53991 35648 ft 448 kts 248°
2026-04-17 17:44 58.86064 -50.65112 35645 ft 448 kts 248°
2026-04-17 17:45 58.83657 -50.76195 35651 ft 447 kts 248°
2026-04-17 17:45 58.81241 -50.87254 35652 ft 447 kts 248°
2026-04-17 17:46 58.78812 -50.98317 35652 ft 447 kts 248°
2026-04-17 17:46 58.76381 -51.09330 35652 ft 447 kts 248°
2026-04-17 17:47 58.73939 -51.20333 35658 ft 448 kts 247°
2026-04-17 17:47 58.72707 -51.25865 35781 ft 450 kts 247°
2026-04-17 17:47 58.71466 -51.31419 36090 ft 450 kts 247°
2026-04-17 17:47 58.70228 -51.36946 36397 ft 449 kts 247°
2026-04-17 17:48 58.68992 -51.42447 36693 ft 449 kts 247°
2026-04-17 17:48 58.67750 -51.47959 36924 ft 449 kts 247°
2026-04-17 17:48 58.66506 -51.53470 37194 ft 449 kts 247°
2026-04-17 17:48 58.65262 -51.58964 37452 ft 449 kts 247°
2026-04-17 17:49 58.64029 -51.64400 37576 ft 451 kts 247°
2026-04-17 17:49 58.61509 -51.75461 37663 ft 452 kts 247°
2026-04-17 17:50 58.58987 -51.86477 37647 ft 448 kts 247°
2026-04-17 17:50 58.56479 -51.97370 37670 ft 445 kts 246°
2026-04-17 17:51 58.53976 -52.08189 37683 ft 444 kts 246°
2026-04-17 17:51 58.51466 -52.18986 37680 ft 444 kts 246°
2026-04-17 17:52 58.48943 -52.29787 37680 ft 445 kts 246°
2026-04-17 17:52 58.46419 -52.40534 37694 ft 447 kts 246°
2026-04-17 17:53 58.43858 -52.51385 37686 ft 448 kts 246°
2026-04-17 17:53 58.41283 -52.62242 37730 ft 450 kts 246°
2026-04-17 17:54 58.38685 -52.73142 37704 ft 452 kts 246°
2026-04-17 17:54 58.36086 -52.83989 37706 ft 453 kts 246°
2026-04-17 17:55 58.33459 -52.94895 37692 ft 453 kts 246°
2026-04-17 17:55 58.30842 -53.05706 37698 ft 453 kts 246°
2026-04-17 17:56 58.28202 -53.16561 37702 ft 451 kts 246°
2026-04-17 17:56 58.25563 -53.27354 37707 ft 450 kts 246°
2026-04-17 17:57 58.22918 -53.38122 37719 ft 449 kts 246°
2026-04-17 17:57 58.20272 -53.48842 37722 ft 448 kts 246°
2026-04-17 17:58 58.17617 -53.59543 37736 ft 448 kts 246°
2026-04-17 17:58 58.14959 -53.70209 37726 ft 447 kts 246°
2026-04-17 17:59 58.12314 -53.80769 37743 ft 447 kts 245°
2026-04-17 17:59 58.09641 -53.91389 37753 ft 447 kts 245°
2026-04-17 18:00 58.06960 -54.01990 37764 ft 448 kts 245°
2026-04-17 18:00 58.04265 -54.12597 37761 ft 448 kts 245°
2026-04-17 18:01 58.01560 -54.23195 37745 ft 448 kts 245°
2026-04-17 18:01 57.98846 -54.33771 37765 ft 448 kts 245°
2026-04-17 18:02 57.96125 -54.44331 37771 ft 448 kts 245°
2026-04-17 18:02 57.93392 -54.54884 37783 ft 448 kts 245°
2026-04-17 18:03 57.90650 -54.65424 37783 ft 449 kts 245°
2026-04-17 18:03 57.87897 -54.75956 37797 ft 449 kts 245°
2026-04-17 18:04 57.85599 -54.84706 37786 ft 448 kts 245°
2026-04-17 18:04 57.82834 -54.95193 37806 ft 448 kts 245°
2026-04-17 18:05 57.79612 -55.07353 37811 ft 447 kts 245°
2026-04-17 18:05 57.77285 -55.16091 37824 ft 447 kts 245°
2026-04-17 18:06 57.74517 -55.26445 37830 ft 447 kts 245°
2026-04-17 18:06 57.71723 -55.36847 37825 ft 447 kts 245°
2026-04-17 18:07 57.68923 -55.47224 37831 ft 447 kts 245°
2026-04-17 18:07 57.66116 -55.57581 37835 ft 447 kts 245°
2026-04-17 18:08 57.63300 -55.67922 37847 ft 446 kts 244°
2026-04-17 18:08 57.60478 -55.78243 37852 ft 446 kts 244°
2026-04-17 18:09 57.57645 -55.88553 37863 ft 447 kts 244°
2026-04-17 18:09 57.54805 -55.98843 37840 ft 446 kts 244°
2026-04-17 18:10 57.51961 -56.09099 37863 ft 446 kts 244°
2026-04-17 18:10 57.49126 -56.19280 37890 ft 446 kts 244°
2026-04-17 18:11 57.46266 -56.29504 37883 ft 446 kts 244°
2026-04-17 18:11 57.43396 -56.39719 37880 ft 446 kts 244°
2026-04-17 18:12 57.40516 -56.49923 37889 ft 447 kts 244°
2026-04-17 18:12 57.37626 -56.60117 37906 ft 446 kts 244°
2026-04-17 18:13 57.34732 -56.70284 37908 ft 446 kts 244°
2026-04-17 18:13 57.31829 -56.80435 37902 ft 446 kts 244°
2026-04-17 18:14 57.28915 -56.90582 37890 ft 447 kts 244°
2026-04-17 18:14 57.25992 -57.00713 37918 ft 446 kts 244°
2026-04-17 18:15 57.23064 -57.10819 37920 ft 446 kts 244°
2026-04-17 18:15 57.20126 -57.20916 37914 ft 447 kts 244°
2026-04-17 18:16 57.17200 -57.30931 37931 ft 447 kts 244°
2026-04-17 18:16 57.14246 -57.40995 37945 ft 446 kts 244°
2026-04-17 18:17 57.11282 -57.51053 37947 ft 446 kts 243°
2026-04-17 18:17 57.06827 -57.66095 37965 ft 446 kts 244°
2026-04-17 18:18 57.03847 -57.76104 37962 ft 446 kts 243°
2026-04-17 18:18 57.00863 -57.86098 37949 ft 446 kts 243°
2026-04-17 18:19 56.97870 -57.96081 37961 ft 446 kts 243°
2026-04-17 18:19 56.94858 -58.06026 37975 ft 446 kts 243°
2026-04-17 18:20 56.91825 -58.15952 37939 ft 447 kts 243°
2026-04-17 18:20 56.88794 -58.25856 37968 ft 446 kts 243°
2026-04-17 18:21 56.85764 -58.35740 37985 ft 445 kts 243°
2026-04-17 18:21 56.82751 -58.45537 37983 ft 446 kts 243°
2026-04-17 18:22 56.79705 -58.55397 37994 ft 446 kts 243°
2026-04-17 18:22 56.76653 -58.65238 38000 ft 446 kts 243°
2026-04-17 18:23 56.73589 -58.75070 38002 ft 445 kts 243°
2026-04-17 18:23 56.70524 -58.84871 38004 ft 445 kts 243°
2026-04-17 18:24 56.67451 -58.94656 38011 ft 446 kts 243°
2026-04-17 18:24 56.64367 -59.04432 38017 ft 446 kts 243°
2026-04-17 18:25 56.61276 -59.14193 38021 ft 446 kts 243°
2026-04-17 18:25 56.58177 -59.23939 37994 ft 446 kts 243°
2026-04-17 18:26 56.55093 -59.33597 38020 ft 445 kts 243°
2026-04-17 18:26 56.51979 -59.43311 38024 ft 445 kts 243°
2026-04-17 18:27 56.48861 -59.52997 38028 ft 445 kts 243°
2026-04-17 18:27 56.45737 -59.62665 38027 ft 445 kts 242°
2026-04-17 18:28 56.42601 -59.72328 38027 ft 445 kts 242°
2026-04-17 18:28 56.39459 -59.81970 38025 ft 444 kts 242°
2026-04-17 18:29 56.36319 -59.91569 38045 ft 444 kts 242°
2026-04-17 18:29 56.33165 -60.01174 38047 ft 445 kts 242°
2026-04-17 18:30 56.30000 -60.10773 38039 ft 445 kts 242°
2026-04-17 18:30 56.26852 -60.20283 38040 ft 445 kts 242°
2026-04-17 18:31 56.23674 -60.29847 38047 ft 445 kts 242°
2026-04-17 18:31 56.20495 -60.39377 38048 ft 445 kts 242°
2026-04-17 18:32 56.17305 -60.48902 38033 ft 445 kts 242°
2026-04-17 18:32 56.14107 -60.58416 38047 ft 445 kts 242°
2026-04-17 18:33 56.10904 -60.67911 38050 ft 445 kts 242°
2026-04-17 18:33 56.07695 -60.77394 38000 ft 444 kts 242°
2026-04-17 18:34 56.04511 -60.86771 38036 ft 444 kts 242°
2026-04-17 18:34 56.01048 -60.95926 38045 ft 449 kts 232°
2026-04-17 18:35 55.96372 -61.03470 38057 ft 458 kts 221°
2026-04-17 18:35 55.90820 -61.09291 38055 ft 464 kts 214°
2026-04-17 18:36 55.85126 -61.14727 38030 ft 464 kts 214°
2026-04-17 18:36 55.79446 -61.20187 38042 ft 464 kts 214°
2026-04-17 18:37 55.73788 -61.25690 38044 ft 464 kts 215°
2026-04-17 18:37 55.68169 -61.31173 38049 ft 464 kts 215°
2026-04-17 18:38 55.62504 -61.36686 38046 ft 464 kts 215°
2026-04-17 18:38 55.56831 -61.42185 38069 ft 464 kts 215°
2026-04-17 18:39 55.51151 -61.47674 38057 ft 465 kts 215°
2026-04-17 18:39 55.45514 -61.53099 38056 ft 465 kts 215°
2026-04-17 18:40 55.39830 -61.58553 38063 ft 465 kts 214°
2026-04-17 18:40 55.34148 -61.63987 38076 ft 465 kts 214°
2026-04-17 18:41 55.28458 -61.69410 38066 ft 465 kts 214°
2026-04-17 18:41 55.22767 -61.74816 38076 ft 465 kts 214°
2026-04-17 18:42 55.17077 -61.80203 38089 ft 465 kts 214°
2026-04-17 18:42 55.11387 -61.85574 38079 ft 464 kts 214°
2026-04-17 18:43 55.05702 -61.90923 38084 ft 464 kts 214°
2026-04-17 18:43 55.00047 -61.96227 38085 ft 465 kts 214°
2026-04-17 18:44 54.94357 -62.01544 38101 ft 465 kts 214°
2026-04-17 18:44 54.88655 -62.06858 38105 ft 465 kts 214°
2026-04-17 18:45 54.82951 -62.12155 38103 ft 465 kts 214°
2026-04-17 18:45 54.77225 -62.17455 38104 ft 466 kts 214°
2026-04-17 18:46 54.71509 -62.22729 38110 ft 466 kts 214°
2026-04-17 18:46 54.65823 -62.27958 38124 ft 465 kts 214°
2026-04-17 18:47 54.60112 -62.33193 38131 ft 465 kts 214°
2026-04-17 18:47 54.54391 -62.38421 38125 ft 465 kts 214°
2026-04-17 18:48 54.48671 -62.43632 38129 ft 466 kts 214°
2026-04-17 18:48 54.42935 -62.48842 38102 ft 465 kts 214°
2026-04-17 18:49 54.37212 -62.54020 38134 ft 465 kts 214°
2026-04-17 18:49 54.31491 -62.59181 38138 ft 465 kts 214°
2026-04-17 18:50 54.25756 -62.64341 38127 ft 465 kts 214°
2026-04-17 18:50 54.20022 -62.69481 38115 ft 465 kts 214°
2026-04-17 18:51 54.14297 -62.74598 38114 ft 465 kts 214°
2026-04-17 18:51 54.08566 -62.79704 38136 ft 465 kts 214°
2026-04-17 18:52 54.02833 -62.84797 38131 ft 465 kts 214°
2026-04-17 18:52 53.97088 -62.89882 38125 ft 464 kts 214°
2026-04-17 18:53 53.91355 -62.94942 38125 ft 464 kts 214°
2026-04-17 18:53 53.85620 -62.99988 38128 ft 464 kts 214°
2026-04-17 18:54 53.79924 -63.04985 38130 ft 464 kts 214°
2026-04-17 18:54 53.74190 -63.09999 38110 ft 464 kts 214°
2026-04-17 18:55 53.68453 -63.15000 38113 ft 464 kts 214°
2026-04-17 18:55 53.62716 -63.19985 38109 ft 464 kts 214°
2026-04-17 18:56 53.56975 -63.24961 38099 ft 464 kts 214°
2026-04-17 18:56 53.52206 -63.29080 38058 ft 464 kts 214°
2026-04-17 18:57 53.46466 -63.34025 38078 ft 463 kts 214°
2026-04-17 18:57 53.40726 -63.38955 38096 ft 463 kts 214°
2026-04-17 18:58 53.34987 -63.43870 38097 ft 464 kts 214°
2026-04-17 18:58 53.29232 -63.48782 38043 ft 464 kts 215°
2026-04-17 18:59 53.23493 -63.53665 38075 ft 463 kts 215°
2026-04-17 18:59 53.17751 -63.58538 38094 ft 463 kts 214°
2026-04-17 19:00 53.12055 -63.63357 38087 ft 463 kts 214°
2026-04-17 19:00 53.06306 -63.68207 38088 ft 463 kts 214°
2026-04-17 19:01 53.00555 -63.73043 38074 ft 463 kts 214°
2026-04-17 19:01 52.94801 -63.77866 38065 ft 463 kts 214°
2026-04-17 19:02 52.89049 -63.82673 38080 ft 463 kts 214°
2026-04-17 19:02 52.83301 -63.87463 38047 ft 462 kts 214°
2026-04-17 19:03 52.77565 -63.92228 38068 ft 461 kts 214°
2026-04-17 19:03 52.71838 -63.96972 38067 ft 460 kts 214°
2026-04-17 19:04 52.66108 -64.01706 38069 ft 460 kts 214°
2026-04-17 19:04 52.60381 -64.06422 38036 ft 459 kts 215°
2026-04-17 19:05 52.54711 -64.11077 38062 ft 459 kts 215°
2026-04-17 19:05 52.49004 -64.15750 38071 ft 458 kts 215°
2026-04-17 19:06 52.43290 -64.20416 38074 ft 458 kts 215°
2026-04-17 19:06 52.37575 -64.25068 38067 ft 458 kts 215°
2026-04-17 19:07 52.31870 -64.29698 38070 ft 458 kts 215°
2026-04-17 19:07 52.26162 -64.34318 38074 ft 458 kts 215°
2026-04-17 19:08 52.20442 -64.38934 38071 ft 458 kts 215°
2026-04-17 19:08 52.14762 -64.43503 38076 ft 457 kts 215°
2026-04-17 19:09 52.09049 -64.48086 38071 ft 458 kts 215°
2026-04-17 19:09 52.03339 -64.52655 38075 ft 458 kts 215°
2026-04-17 19:10 51.97617 -64.57221 38074 ft 458 kts 215°
2026-04-17 19:10 51.91897 -64.61769 38074 ft 457 kts 215°
2026-04-17 19:11 51.86186 -64.66299 38065 ft 457 kts 215°
2026-04-17 19:11 51.80471 -64.70820 38073 ft 457 kts 215°
2026-04-17 19:12 51.74751 -64.75329 38069 ft 457 kts 215°
2026-04-17 19:12 51.69034 -64.79826 38058 ft 456 kts 215°
2026-04-17 19:13 51.63327 -64.84303 38059 ft 457 kts 215°
2026-04-17 19:13 51.57610 -64.88774 38063 ft 457 kts 215°
2026-04-17 19:14 51.51893 -64.93234 37983 ft 457 kts 215°
2026-04-17 19:14 51.46184 -64.97671 38040 ft 456 kts 215°
2026-04-17 19:15 51.40464 -65.02107 38064 ft 457 kts 215°
2026-04-17 19:15 51.34777 -65.06506 38040 ft 457 kts 215°
2026-04-17 19:16 51.29048 -65.10924 38001 ft 457 kts 215°
2026-04-17 19:16 51.23324 -65.15324 38031 ft 456 kts 215°
2026-04-17 19:17 51.17603 -65.19712 38047 ft 456 kts 215°
2026-04-17 19:17 51.11878 -65.24093 38034 ft 456 kts 215°
2026-04-17 19:18 51.06153 -65.28456 38010 ft 455 kts 216°
2026-04-17 19:18 51.00440 -65.32800 38025 ft 455 kts 215°
2026-04-17 19:19 50.94733 -65.37129 38036 ft 454 kts 215°
2026-04-17 19:19 50.89024 -65.41449 38031 ft 454 kts 215°
2026-04-17 19:20 50.83360 -65.45722 38020 ft 454 kts 215°
2026-04-17 19:20 50.77644 -65.50021 38014 ft 454 kts 215°
2026-04-17 19:21 50.71935 -65.54307 38011 ft 454 kts 215°
2026-04-17 19:21 50.66229 -65.58575 38004 ft 454 kts 215°
2026-04-17 19:22 50.60522 -65.62834 38003 ft 453 kts 215°
2026-04-17 19:22 50.54822 -65.67076 37997 ft 454 kts 215°
2026-04-17 19:23 50.46249 -65.73436 37989 ft 455 kts 215°
2026-04-17 19:24 50.40555 -65.77646 37984 ft 455 kts 215°
2026-04-17 19:24 50.34827 -65.81868 37980 ft 455 kts 215°
2026-04-17 19:25 50.29083 -65.86092 37986 ft 456 kts 215°
2026-04-17 19:25 50.23332 -65.90310 37988 ft 457 kts 215°
2026-04-17 19:26 50.17578 -65.94517 37984 ft 456 kts 215°
2026-04-17 19:26 50.11860 -65.98687 37985 ft 456 kts 214°
2026-04-17 19:27 50.06110 -66.02870 37982 ft 456 kts 214°
2026-04-17 19:27 50.00347 -66.07051 37941 ft 456 kts 214°
2026-04-17 19:28 49.94605 -66.11205 37991 ft 456 kts 214°
2026-04-17 19:28 49.88840 -66.15367 37998 ft 456 kts 214°
2026-04-17 19:29 49.83082 -66.19513 38001 ft 457 kts 214°
2026-04-17 19:29 49.77314 -66.23655 37971 ft 457 kts 214°
2026-04-17 19:30 49.71551 -66.27779 37997 ft 457 kts 214°
2026-04-17 19:30 49.65816 -66.31876 38012 ft 457 kts 214°
2026-04-17 19:31 49.60038 -66.35992 38013 ft 458 kts 214°
2026-04-17 19:31 49.54258 -66.40098 38021 ft 457 kts 213°
2026-04-17 19:32 49.48469 -66.44199 38026 ft 457 kts 213°
2026-04-17 19:32 49.42692 -66.48282 38023 ft 457 kts 213°
2026-04-17 19:33 49.36912 -66.52356 37986 ft 457 kts 213°
2026-04-17 19:33 49.31146 -66.56408 38023 ft 456 kts 213°
2026-04-17 19:34 49.25383 -66.60450 38037 ft 455 kts 213°
2026-04-17 19:34 49.19653 -66.64459 38044 ft 456 kts 213°
2026-04-17 19:35 49.13889 -66.68480 38031 ft 455 kts 212°
2026-04-17 19:35 49.08128 -66.72489 38042 ft 455 kts 212°
2026-04-17 19:36 49.02372 -66.76484 38056 ft 455 kts 212°
2026-04-17 19:36 48.96602 -66.80480 38047 ft 456 kts 212°
2026-04-17 19:37 48.90831 -66.84464 38045 ft 455 kts 212°
2026-04-17 19:37 48.85065 -66.88436 38044 ft 455 kts 212°
2026-04-17 19:38 48.79300 -66.92397 38057 ft 455 kts 212°
2026-04-17 19:38 48.73531 -66.96351 38066 ft 455 kts 212°
2026-04-17 19:39 48.67748 -67.00305 38056 ft 455 kts 212°
2026-04-17 19:39 48.61979 -67.04237 38060 ft 455 kts 212°
2026-04-17 19:40 48.56253 -67.08131 38062 ft 454 kts 212°
2026-04-17 19:40 48.50490 -67.12040 38055 ft 453 kts 211°
2026-04-17 19:41 48.44747 -67.15926 38067 ft 452 kts 211°
2026-04-17 19:41 48.39014 -67.19798 38061 ft 451 kts 211°
2026-04-17 19:42 48.33287 -67.23656 38032 ft 451 kts 211°
2026-04-17 19:42 48.27560 -67.27504 38057 ft 451 kts 211°
2026-04-17 19:43 48.21838 -67.31339 38078 ft 451 kts 211°
2026-04-17 19:43 48.16137 -67.35150 38065 ft 451 kts 211°
2026-04-17 19:44 48.10399 -67.38978 38064 ft 452 kts 211°
2026-04-17 19:44 48.04642 -67.42808 38070 ft 453 kts 211°
2026-04-17 19:45 47.98870 -67.46640 38079 ft 455 kts 210°
2026-04-17 19:45 47.93072 -67.50480 38034 ft 456 kts 210°
2026-04-17 19:46 47.87271 -67.54310 38067 ft 457 kts 210°
2026-04-17 19:46 47.81491 -67.58120 38077 ft 458 kts 210°
2026-04-17 19:47 47.75658 -67.61955 38081 ft 458 kts 210°
2026-04-17 19:47 47.69824 -67.65783 38069 ft 458 kts 209°
2026-04-17 19:48 47.63985 -67.69607 38062 ft 458 kts 209°
2026-04-17 19:48 47.58150 -67.73425 38070 ft 458 kts 209°
2026-04-17 19:49 47.52341 -67.77266 38062 ft 455 kts 211°
2026-04-17 19:49 47.47646 -67.80769 38072 ft 453 kts 212°
2026-04-17 19:50 47.42036 -67.84984 38066 ft 453 kts 212°
2026-04-17 19:50 47.35507 -67.89880 38074 ft 452 kts 212°
2026-04-17 19:51 47.30818 -67.93384 38059 ft 451 kts 211°
2026-04-17 19:51 47.25225 -67.97552 38062 ft 450 kts 211°
2026-04-17 19:52 47.19637 -68.01704 38070 ft 449 kts 211°
2026-04-17 19:52 47.14108 -68.05801 38046 ft 446 kts 211°
2026-04-17 19:53 47.08584 -68.09892 38040 ft 444 kts 211°
2026-04-17 19:53 47.03073 -68.13960 38042 ft 442 kts 211°
2026-04-17 19:54 46.97592 -68.17996 38045 ft 441 kts 211°
2026-04-17 19:54 46.92106 -68.22029 38043 ft 440 kts 211°
2026-04-17 19:55 46.86627 -68.26045 38044 ft 441 kts 211°
2026-04-17 19:55 46.81168 -68.30039 38049 ft 442 kts 211°
2026-04-17 19:56 46.75658 -68.34060 38062 ft 443 kts 211°
2026-04-17 19:56 46.70123 -68.38090 38059 ft 445 kts 211°
2026-04-17 19:57 46.64585 -68.42113 38060 ft 445 kts 211°
2026-04-17 19:57 46.59033 -68.46135 38067 ft 445 kts 211°
2026-04-17 19:58 46.53482 -68.50148 38055 ft 446 kts 211°
2026-04-17 19:58 46.47926 -68.54156 38062 ft 446 kts 211°
2026-04-17 19:59 46.42356 -68.58164 38057 ft 447 kts 211°
2026-04-17 19:59 46.36773 -68.62174 38041 ft 448 kts 210°
2026-04-17 20:00 46.31179 -68.66181 38061 ft 449 kts 210°
2026-04-17 20:00 46.25620 -68.70154 38063 ft 449 kts 210°
2026-04-17 20:01 46.20013 -68.74153 38029 ft 449 kts 210°
2026-04-17 20:01 46.14408 -68.78140 38052 ft 450 kts 210°
2026-04-17 20:02 46.08789 -68.82129 38048 ft 450 kts 210°
2026-04-17 20:02 46.03159 -68.86118 38060 ft 451 kts 210°
2026-04-17 20:03 45.97520 -68.90102 38048 ft 451 kts 210°
2026-04-17 20:03 45.91874 -68.94081 38059 ft 452 kts 210°
2026-04-17 20:04 45.86217 -68.98063 38039 ft 453 kts 210°
2026-04-17 20:04 45.80555 -69.02035 38034 ft 452 kts 209°
2026-04-17 20:05 45.74898 -69.05995 38039 ft 452 kts 209°
2026-04-17 20:05 45.69248 -69.09943 38027 ft 452 kts 209°
2026-04-17 20:06 45.63635 -69.13856 38012 ft 452 kts 209°
2026-04-17 20:06 45.57978 -69.17790 38028 ft 452 kts 209°
2026-04-17 20:07 45.52317 -69.21719 38017 ft 453 kts 209°
2026-04-17 20:07 45.51357 -69.22384 38011 ft 453 kts 209°
2026-04-17 20:08 45.45809 -69.26224 38003 ft 453 kts 209°
2026-04-17 20:08 45.38291 -69.31414 38021 ft 453 kts 209°